Time,TemperatureF,DewpointF,PressureIn,WindDirection,WindDirectionDegrees,WindSpeedMPH,WindSpeedGustMPH,Humidity,HourlyPrecipIn,Conditions,Clouds,dailyrainin,SoftwareType,DateUTC
2013-01-04 00:02:00,34.3,16.7,25.37,ESE,105,3.1,3.6,48,0.00,,---,0.00,VWS V14.01,2013-01-04 07:02:00,
2013-01-04 00:07:00,34.3,16.7,25.37,SE,124,4.0,4.0,48,0.00,,---,0.00,VWS V14.01,2013-01-04 07:07:00,
2013-01-04 00:12:00,34.3,16.7,25.37,ENE,57,4.9,4.9,48,0.00,,---,0.00,VWS V14.01,2013-01-04 07:12:00,
2013-01-04 00:17:00,34.2,17.5,25.37,NNE,31,3.6,8.7,50,0.00,,---,0.00,VWS V14.01,2013-01-04 07:17:00,
2013-01-04 00:22:00,34.0,18.7,25.37,East,81,2.7,6.3,53,0.00,,---,0.00,VWS V14.01,2013-01-04 07:22:00,
2013-01-04 00:27:00,34.0,18.2,25.37,East,95,8.3,8.3,52,0.00,,---,0.00,VWS V14.01,2013-01-04 07:27:00,
2013-01-04 00:32:00,33.8,17.1,25.37,NNW,330,2.7,5.4,50,0.00,,---,0.00,VWS V14.01,2013-01-04 07:32:00,
2013-01-04 00:37:00,33.8,17.6,25.37,SE,125,5.8,8.1,51,0.00,,---,0.00,VWS V14.01,2013-01-04 07:37:00,
2013-01-04 00:42:00,33.8,16.7,25.37,East,94,2.7,5.8,49,0.00,,---,0.00,VWS V14.01,2013-01-04 07:42:00,
2013-01-04 00:47:00,33.8,17.1,25.37,ESE,102,4.0,7.6,50,0.00,,---,0.00,VWS V14.01,2013-01-04 07:47:00,
2013-01-04 00:52:00,33.8,17.6,25.37,East,101,4.0,6.3,51,0.00,,---,0.00,VWS V14.01,2013-01-04 07:52:00,
2013-01-04 00:57:00,33.8,17.1,25.37,NE,51,3.6,4.0,50,0.00,,---,0.00,VWS V14.01,2013-01-04 07:57:00,
2013-01-04 01:02:00,33.8,17.1,25.37,North,357,3.1,4.0,50,0.00,,---,0.00,VWS V14.01,2013-01-04 08:02:00,
2013-01-04 01:07:00,33.6,17.4,25.37,East,84,4.0,5.4,51,0.00,,---,0.00,VWS V14.01,2013-01-04 08:07:00,
2013-01-04 01:12:00,33.6,17.4,25.37,East,98,7.2,7.2,51,0.00,,---,0.00,VWS V14.01,2013-01-04 08:12:00,
2013-01-04 01:17:00,33.6,17.4,25.37,ESE,122,2.2,3.6,51,0.00,,---,0.00,VWS V14.01,2013-01-04 08:17:00,
2013-01-04 01:22:00,33.6,17.4,25.37,East,88,3.6,3.6,51,0.00,,---,0.00,VWS V14.01,2013-01-04 08:22:00,
2013-01-04 01:27:00,33.8,17.1,25.37,ENE,65,5.8,5.8,50,0.00,,---,0.00,VWS V14.01,2013-01-04 08:27:00,
2013-01-04 01:32:00,33.6,17.4,25.37,NE,54,2.7,9.6,51,0.00,,---,0.00,VWS V14.01,2013-01-04 08:32:00,
2013-01-04 01:37:00,33.8,17.6,25.37,East,92,2.7,4.0,51,0.00,,---,0.00,VWS V14.01,2013-01-04 08:37:00,
2013-01-04 01:42:00,33.8,16.7,25.37,ENE,60,4.0,6.3,49,0.00,,---,0.00,VWS V14.01,2013-01-04 08:42:00,
2013-01-04 01:47:00,33.8,16.7,25.37,NNE,16,4.0,5.8,49,0.00,,---,0.00,VWS V14.01,2013-01-04 08:47:00,
2013-01-04 01:52:00,33.8,16.7,25.37,East,90,3.1,5.8,49,0.00,,---,0.00,VWS V14.01,2013-01-04 08:52:00,
2013-01-04 01:57:00,33.6,16.5,25.37,East,99,5.4,5.4,49,0.00,,---,0.00,VWS V14.01,2013-01-04 08:57:00,
2013-01-04 02:02:00,33.6,16.5,25.37,East,79,6.3,6.3,49,0.00,,---,0.00,VWS V14.01,2013-01-04 09:02:00,
2013-01-04 02:07:00,33.6,17.0,25.37,ENE,78,4.9,7.6,50,0.00,,---,0.00,VWS V14.01,2013-01-04 09:07:00,
2013-01-04 02:12:00,33.6,17.0,25.37,ENE,68,3.6,5.4,50,0.00,,---,0.00,VWS V14.01,2013-01-04 09:12:00,
2013-01-04 02:17:00,33.6,17.0,25.37,ENE,63,3.6,4.9,50,0.00,,---,0.00,VWS V14.01,2013-01-04 09:17:00,
2013-01-04 02:23:00,33.4,16.8,25.37,NE,37,2.2,2.7,50,0.00,,---,0.00,VWS V14.01,2013-01-04 09:23:00,
2013-01-04 02:28:00,33.6,16.5,25.37,East,85,3.1,6.3,49,0.00,,---,0.00,VWS V14.01,2013-01-04 09:28:00,
2013-01-04 02:33:00,33.6,17.4,25.37,East,92,2.2,5.4,51,0.00,,---,0.00,VWS V14.01,2013-01-04 09:33:00,
2013-01-04 02:38:00,33.4,16.8,25.37,NE,53,3.6,4.0,50,0.00,,---,0.00,VWS V14.01,2013-01-04 09:38:00,
2013-01-04 02:43:00,33.4,16.4,25.37,ENE,58,3.1,5.8,49,0.00,,---,0.00,VWS V14.01,2013-01-04 09:43:00,
2013-01-04 02:48:00,33.3,16.2,25.37,ENE,63,4.0,4.9,49,0.00,,---,0.00,VWS V14.01,2013-01-04 09:48:00,
2013-01-04 02:53:00,33.3,16.6,25.37,East,93,3.1,3.1,50,0.00,,---,0.00,VWS V14.01,2013-01-04 09:53:00,
2013-01-04 02:58:00,33.3,16.6,25.37,ENE,65,4.0,6.3,50,0.00,,---,0.00,VWS V14.01,2013-01-04 09:58:00,
2013-01-04 03:03:00,33.3,16.6,25.37,NE,34,4.0,4.0,50,0.00,,---,0.00,VWS V14.01,2013-01-04 10:03:00,
2013-01-04 03:08:00,33.3,17.1,25.37,ENE,70,3.6,4.0,51,0.00,,---,0.00,VWS V14.01,2013-01-04 10:08:00,
2013-01-04 03:13:00,33.1,16.9,25.37,ESE,117,2.7,5.4,51,0.00,,---,0.00,VWS V14.01,2013-01-04 10:13:00,
2013-01-04 03:18:00,32.9,17.7,25.37,East,85,2.7,4.0,53,0.00,,---,0.00,VWS V14.01,2013-01-04 10:18:00,
2013-01-04 03:23:00,32.9,18.5,25.37,ENE,70,5.4,5.8,55,0.00,,---,0.00,VWS V14.01,2013-01-04 10:23:00,
2013-01-04 03:28:00,32.7,19.2,25.37,ESE,115,2.2,4.0,57,0.00,,---,0.00,VWS V14.01,2013-01-04 10:28:00,
2013-01-04 03:33:00,32.7,18.8,25.37,East,83,5.8,7.2,56,0.00,,---,0.00,VWS V14.01,2013-01-04 10:33:00,
2013-01-04 03:38:00,32.5,18.2,25.37,NNE,15,3.6,5.4,55,0.00,,---,0.00,VWS V14.01,2013-01-04 10:38:00,
2013-01-04 03:43:00,32.5,18.2,25.37,ESE,104,8.7,8.7,55,0.00,,---,0.00,VWS V14.01,2013-01-04 10:43:00,
2013-01-04 03:48:00,32.4,18.0,25.37,ESE,104,4.9,4.9,55,0.00,,---,0.00,VWS V14.01,2013-01-04 10:48:00,
2013-01-04 03:53:00,32.4,17.6,25.37,East,79,2.7,6.3,54,0.00,,---,0.00,VWS V14.01,2013-01-04 10:53:00,
2013-01-04 03:58:00,32.4,18.0,25.37,East,90,5.4,5.8,55,0.00,,---,0.00,VWS V14.01,2013-01-04 10:58:00,
2013-01-04 04:03:00,32.2,17.0,25.37,North,6,4.9,5.8,53,0.00,,---,0.00,VWS V14.01,2013-01-04 11:03:00,
2013-01-04 04:08:00,32.2,17.4,25.37,ESE,104,5.8,6.3,54,0.00,,---,0.00,VWS V14.01,2013-01-04 11:08:00,
2013-01-04 04:13:00,32.4,17.1,25.40,East,82,4.9,4.9,53,0.00,,---,0.00,VWS V14.01,2013-01-04 11:13:00,
2013-01-04 04:18:00,32.4,16.7,25.40,ESE,102,3.1,5.8,52,0.00,,---,0.00,VWS V14.01,2013-01-04 11:18:00,
2013-01-04 04:23:00,32.4,16.7,25.40,ESE,117,3.1,4.0,52,0.00,,---,0.00,VWS V14.01,2013-01-04 11:23:00,
2013-01-04 04:28:00,32.5,16.9,25.40,East,96,2.2,4.9,52,0.00,,---,0.00,VWS V14.01,2013-01-04 11:28:00,
2013-01-04 04:33:00,32.5,16.9,25.40,SE,129,2.7,6.3,52,0.00,,---,0.00,VWS V14.01,2013-01-04 11:33:00,
2013-01-04 04:38:00,32.5,16.4,25.40,ESE,112,3.6,3.6,51,0.00,,---,0.00,VWS V14.01,2013-01-04 11:38:00,
2013-01-04 04:43:00,32.5,16.4,25.37,ESE,103,4.0,4.0,51,0.00,,---,0.00,VWS V14.01,2013-01-04 11:43:00,
2013-01-04 04:48:00,32.7,16.1,25.37,ENE,75,3.1,3.6,50,0.00,,---,0.00,VWS V14.01,2013-01-04 11:48:00,
2013-01-04 04:53:00,32.7,15.7,25.37,NE,35,4.0,4.0,49,0.00,,---,0.00,VWS V14.01,2013-01-04 11:53:00,
2013-01-04 04:58:00,32.7,15.7,25.37,NNE,23,2.7,2.7,49,0.00,,---,0.00,VWS V14.01,2013-01-04 11:58:00,
2013-01-04 05:03:00,32.7,15.2,25.37,NNE,13,3.6,5.4,48,0.00,,---,0.00,VWS V14.01,2013-01-04 12:03:00,
2013-01-04 05:08:00,32.7,15.2,25.37,ENE,75,0.0,0.0,48,0.00,,---,0.00,VWS V14.01,2013-01-04 12:08:00,
2013-01-04 05:13:00,32.7,14.7,25.37,NE,43,4.0,4.0,47,0.00,,---,0.00,VWS V14.01,2013-01-04 12:13:00,
2013-01-04 05:18:00,32.5,14.1,25.37,North,10,2.7,3.1,46,0.00,,---,0.00,VWS V14.01,2013-01-04 12:18:00,
2013-01-04 05:23:00,32.5,14.1,25.37,NNE,25,2.7,2.7,46,0.00,,---,0.00,VWS V14.01,2013-01-04 12:23:00,
2013-01-04 05:28:00,32.5,14.1,25.37,North,0,3.1,3.1,46,0.00,,---,0.00,VWS V14.01,2013-01-04 12:28:00,
2013-01-04 05:33:00,32.4,13.9,25.37,North,0,4.9,4.9,46,0.00,,---,0.00,VWS V14.01,2013-01-04 12:33:00,
2013-01-04 05:38:00,32.2,14.2,25.37,ENE,57,3.6,4.9,47,0.00,,---,0.00,VWS V14.01,2013-01-04 12:38:00,
2013-01-04 05:43:00,32.0,14.1,25.40,NE,42,2.7,2.7,47,0.00,,---,0.00,VWS V14.01,2013-01-04 12:43:00,
2013-01-04 05:48:00,32.0,14.1,25.40,NE,34,0.0,4.0,47,0.00,,---,0.00,VWS V14.01,2013-01-04 12:48:00,
2013-01-04 05:53:00,31.6,13.7,25.40,East,86,2.7,3.1,47,0.00,,---,0.00,VWS V14.01,2013-01-04 12:53:00,
2013-01-04 05:58:00,31.5,14.1,25.40,NE,50,2.7,3.1,48,0.00,,---,0.00,VWS V14.01,2013-01-04 12:58:00,
2013-01-04 06:03:00,31.3,13.9,25.40,North,1,4.0,4.0,48,0.00,,---,0.00,VWS V14.01,2013-01-04 13:03:00,
2013-01-04 06:08:00,30.7,12.9,25.40,NE,48,3.6,3.6,47,0.00,,---,0.00,VWS V14.01,2013-01-04 13:08:00,
2013-01-04 06:13:00,30.6,13.7,25.40,East,86,0.0,0.0,49,0.00,,---,0.00,VWS V14.01,2013-01-04 13:13:00,
2013-01-04 06:18:00,30.2,13.8,25.40,East,80,0.0,2.7,50,0.00,,---,0.00,VWS V14.01,2013-01-04 13:18:00,
2013-01-04 06:23:00,30.2,13.4,25.40,East,92,3.6,3.6,49,0.00,,---,0.00,VWS V14.01,2013-01-04 13:23:00,
2013-01-04 06:28:00,30.2,13.4,25.40,East,88,2.7,4.9,49,0.00,,---,0.00,VWS V14.01,2013-01-04 13:28:00,
2013-01-04 06:33:00,30.9,15.4,25.40,ESE,109,3.6,3.6,52,0.00,,---,0.00,VWS V14.01,2013-01-04 13:33:00,
2013-01-04 06:38:00,30.6,13.7,25.40,ENE,73,3.1,3.1,49,0.00,,---,0.00,VWS V14.01,2013-01-04 13:38:00,
2013-01-04 06:43:00,30.6,13.7,25.40,ENE,62,0.0,4.9,49,0.00,,---,0.00,VWS V14.01,2013-01-04 13:43:00,
2013-01-04 06:48:00,30.7,13.9,25.40,ESE,105,3.1,3.6,49,0.00,,---,0.00,VWS V14.01,2013-01-04 13:48:00,
2013-01-04 06:53:00,30.6,14.1,25.40,NE,44,0.0,3.6,50,0.00,,---,0.00,VWS V14.01,2013-01-04 13:53:00,
2013-01-04 06:58:00,30.6,15.0,25.40,ENE,75,2.2,3.1,52,0.00,,---,0.00,VWS V14.01,2013-01-04 13:58:00,
2013-01-04 07:03:00,30.7,14.3,25.40,ENE,75,3.6,3.6,50,0.00,,---,0.00,VWS V14.01,2013-01-04 14:03:00,
2013-01-04 07:08:00,30.7,14.3,25.40,NE,36,3.6,3.6,50,0.00,,---,0.00,VWS V14.01,2013-01-04 14:08:00,
2013-01-04 07:13:00,30.7,14.8,25.40,ENE,71,0.0,2.2,51,0.00,,---,0.00,VWS V14.01,2013-01-04 14:13:00,
2013-01-04 07:19:00,30.4,14.0,25.40,East,83,0.0,4.0,50,0.00,,---,0.00,VWS V14.01,2013-01-04 14:19:00,
2013-01-04 07:24:00,30.2,14.3,25.40,East,98,2.2,4.9,51,0.00,,---,0.00,VWS V14.01,2013-01-04 14:24:00,
2013-01-04 07:29:00,30.0,14.1,25.40,East,92,2.7,2.7,51,0.00,,---,0.00,VWS V14.01,2013-01-04 14:29:00,
2013-01-04 07:34:00,29.8,14.4,25.40,East,91,0.0,0.0,52,0.00,,---,0.00,VWS V14.01,2013-01-04 14:34:00,
2013-01-04 07:39:00,29.5,13.6,25.40,East,91,0.0,2.2,51,0.00,,---,0.00,VWS V14.01,2013-01-04 14:39:00,
2013-01-04 07:44:00,29.7,14.2,25.40,East,88,0.0,3.6,52,0.00,,---,0.00,VWS V14.01,2013-01-04 14:44:00,
2013-01-04 07:49:00,29.5,14.0,25.40,East,88,0.0,0.0,52,0.00,,---,0.00,VWS V14.01,2013-01-04 14:49:00,
2013-01-04 07:54:00,29.3,13.9,25.40,East,88,0.0,0.0,52,0.00,,---,0.00,VWS V14.01,2013-01-04 14:54:00,
2013-01-04 07:59:00,29.3,14.3,25.40,East,88,0.0,2.2,53,0.00,,---,0.00,VWS V14.01,2013-01-04 14:59:00,
2013-01-04 08:04:00,29.3,13.9,25.40,East,88,2.2,2.7,52,0.00,,---,0.00,VWS V14.01,2013-01-04 15:04:00,
2013-01-04 08:09:00,29.5,14.0,25.40,East,88,0.0,0.0,52,0.00,,---,0.00,VWS V14.01,2013-01-04 15:09:00,
2013-01-04 08:14:00,29.7,13.8,25.43,East,96,0.0,2.7,51,0.00,,---,0.00,VWS V14.01,2013-01-04 15:14:00,
2013-01-04 08:19:00,30.0,14.1,25.43,ENE,67,0.0,0.0,51,0.00,,---,0.00,VWS V14.01,2013-01-04 15:19:00,
2013-01-04 08:24:00,30.4,14.4,25.43,ENE,65,0.0,2.2,51,0.00,,---,0.00,VWS V14.01,2013-01-04 15:24:00,
2013-01-04 08:29:00,30.9,14.5,25.43,NNE,32,2.2,4.9,50,0.00,,---,0.00,VWS V14.01,2013-01-04 15:29:00,
2013-01-04 08:34:00,31.6,15.1,25.43,East,80,0.0,2.2,50,0.00,,---,0.00,VWS V14.01,2013-01-04 15:34:00,
2013-01-04 08:39:00,32.2,15.6,25.43,NE,50,0.0,0.0,50,0.00,,---,0.00,VWS V14.01,2013-01-04 15:39:00,
2013-01-04 08:44:00,32.7,15.7,25.43,NE,50,0.0,0.0,49,0.00,,---,0.00,VWS V14.01,2013-01-04 15:44:00,
2013-01-04 08:49:00,33.1,15.5,25.43,NE,41,0.0,2.7,48,0.00,,---,0.00,VWS V14.01,2013-01-04 15:49:00,
2013-01-04 08:54:00,33.1,15.1,25.43,North,8,0.0,2.7,47,0.00,,---,0.00,VWS V14.01,2013-01-04 15:54:00,
2013-01-04 08:59:00,33.3,15.2,25.43,North,0,0.0,0.0,47,0.00,,---,0.00,VWS V14.01,2013-01-04 15:59:00,
2013-01-04 09:04:00,33.3,15.2,25.43,North,0,0.0,0.0,47,0.00,,---,0.00,VWS V14.01,2013-01-04 16:04:00,
2013-01-04 09:09:00,33.1,15.1,25.43,NW,325,0.0,3.1,47,0.00,,---,0.00,VWS V14.01,2013-01-04 16:09:00,
2013-01-04 09:14:00,33.3,15.2,25.43,NNW,336,0.0,2.2,47,0.00,,---,0.00,VWS V14.01,2013-01-04 16:14:00,
2013-01-04 09:19:00,33.6,15.1,25.43,North,350,0.0,0.0,46,0.00,,---,0.00,VWS V14.01,2013-01-04 16:19:00,
2013-01-04 09:24:00,33.6,14.6,25.43,NW,326,0.0,0.0,45,0.00,,---,0.00,VWS V14.01,2013-01-04 16:24:00,
2013-01-04 09:29:00,33.8,14.7,25.43,NNW,333,2.2,2.2,45,0.00,,---,0.00,VWS V14.01,2013-01-04 16:29:00,
2013-01-04 09:34:00,34.0,14.9,25.43,NNW,338,0.0,2.7,45,0.00,,---,0.00,VWS V14.01,2013-01-04 16:34:00,
2013-01-04 09:39:00,34.0,14.9,25.43,NNW,339,0.0,2.2,45,0.00,,---,0.00,VWS V14.01,2013-01-04 16:39:00,
2013-01-04 09:44:00,34.3,14.7,25.43,NNW,338,0.0,2.2,44,0.00,,---,0.00,VWS V14.01,2013-01-04 16:44:00,
2013-01-04 09:49:00,34.7,15.0,25.43,NNW,332,3.6,3.6,44,0.00,,---,0.00,VWS V14.01,2013-01-04 16:49:00,
2013-01-04 09:54:00,34.7,15.0,25.43,NNW,338,0.0,4.0,44,0.00,,---,0.00,VWS V14.01,2013-01-04 16:54:00,
2013-01-04 09:59:00,34.9,14.7,25.43,North,1,0.0,4.0,43,0.00,,---,0.00,VWS V14.01,2013-01-04 16:59:00,
2013-01-04 10:04:00,35.1,14.3,25.43,NNW,332,2.7,4.9,42,0.00,,---,0.00,VWS V14.01,2013-01-04 17:04:00,
2013-01-04 10:09:00,35.2,13.9,25.43,NNW,328,3.6,3.6,41,0.00,,---,0.00,VWS V14.01,2013-01-04 17:09:00,
2013-01-04 10:14:00,35.2,14.5,25.43,WNW,301,2.7,2.7,42,0.00,,---,0.00,VWS V14.01,2013-01-04 17:14:00,
2013-01-04 10:19:00,35.4,14.6,25.43,NW,324,2.2,3.6,42,0.00,,---,0.00,VWS V14.01,2013-01-04 17:19:00,
2013-01-04 10:24:00,35.6,13.7,25.43,NE,42,3.1,3.6,40,0.00,,---,0.00,VWS V14.01,2013-01-04 17:24:00,
2013-01-04 10:29:00,35.8,14.4,25.43,NNW,341,2.7,4.0,41,0.00,,---,0.00,VWS V14.01,2013-01-04 17:29:00,
2013-01-04 10:34:00,35.8,13.8,25.43,NNW,333,3.1,3.1,40,0.00,,---,0.00,VWS V14.01,2013-01-04 17:34:00,
2013-01-04 10:39:00,36.0,14.6,25.43,NW,319,0.0,2.7,41,0.00,,---,0.00,VWS V14.01,2013-01-04 17:39:00,
2013-01-04 10:43:00,36.3,14.3,25.43,NNW,338,3.1,4.0,40,0.00,,---,0.00,VWS V14.01,2013-01-04 17:43:00,
2013-01-04 10:49:00,36.3,14.3,25.43,NNW,343,2.7,3.6,40,0.00,,---,0.00,VWS V14.01,2013-01-04 17:49:00,
2013-01-04 10:53:00,36.3,14.3,25.43,WNW,295,2.2,3.1,40,0.00,,---,0.00,VWS V14.01,2013-01-04 17:53:00,
2013-01-04 10:58:00,36.5,14.5,25.43,WNW,303,0.0,2.7,40,0.00,,---,0.00,VWS V14.01,2013-01-04 17:58:00,
2013-01-04 11:03:00,36.7,14.6,25.43,NW,305,0.0,0.0,40,0.00,,---,0.00,VWS V14.01,2013-01-04 18:03:00,
2013-01-04 11:08:00,37.0,15.0,25.43,NW,322,5.8,5.8,40,0.00,,---,0.00,VWS V14.01,2013-01-04 18:08:00,
2013-01-04 11:14:00,37.4,14.7,25.43,NE,54,3.1,4.0,39,0.00,,---,0.00,VWS V14.01,2013-01-04 18:14:00,
2013-01-04 11:19:00,37.6,14.9,25.43,North,353,3.1,3.1,39,0.00,,---,0.00,VWS V14.01,2013-01-04 18:19:00,
2013-01-04 11:24:00,37.8,15.0,25.43,North,8,3.1,4.0,39,0.00,,---,0.00,VWS V14.01,2013-01-04 18:24:00,
2013-01-04 11:29:00,37.6,14.9,25.43,North,353,3.6,3.6,39,0.00,,---,0.00,VWS V14.01,2013-01-04 18:29:00,
2013-01-04 11:34:00,37.8,15.0,25.43,North,0,0.0,3.6,39,0.00,,---,0.00,VWS V14.01,2013-01-04 18:34:00,
2013-01-04 11:39:00,37.8,15.0,25.43,NW,325,2.7,3.6,39,0.00,,---,0.00,VWS V14.01,2013-01-04 18:39:00,
2013-01-04 11:44:00,37.9,15.2,25.43,NNW,331,0.0,3.1,39,0.00,,---,0.00,VWS V14.01,2013-01-04 18:44:00,
2013-01-04 11:49:00,38.1,14.2,25.43,NW,318,4.0,4.0,37,0.00,,---,0.00,VWS V14.01,2013-01-04 18:49:00,
2013-01-04 11:54:00,38.5,14.5,25.43,NNW,345,0.0,3.1,37,0.00,,---,0.00,VWS V14.01,2013-01-04 18:54:00,
2013-01-04 11:59:00,38.1,12.9,25.40,North,357,4.0,4.0,35,0.00,,---,0.00,VWS V14.01,2013-01-04 18:59:00,
2013-01-04 12:04:00,38.8,14.8,25.40,NNE,27,4.5,4.9,37,0.00,,---,0.00,VWS V14.01,2013-01-04 19:04:00,
2013-01-04 12:09:00,39.0,15.6,25.40,NNW,329,3.1,4.0,38,0.00,,---,0.00,VWS V14.01,2013-01-04 19:09:00,
2013-01-04 12:14:00,39.0,13.7,25.40,NNW,339,0.0,0.0,35,0.00,,---,0.00,VWS V14.01,2013-01-04 19:14:00,
2013-01-04 12:19:00,38.8,13.5,25.40,ENE,61,2.7,2.7,35,0.00,,---,0.00,VWS V14.01,2013-01-04 19:19:00,
2013-01-04 12:24:00,39.2,13.9,25.40,ESE,114,0.0,0.0,35,0.00,,---,0.00,VWS V14.01,2013-01-04 19:24:00,
2013-01-04 12:29:00,39.6,14.8,25.40,NW,316,3.1,3.1,36,0.00,,---,0.00,VWS V14.01,2013-01-04 19:29:00,
2013-01-04 12:34:00,40.1,15.9,25.40,ESE,115,3.1,4.9,37,0.00,,---,0.00,VWS V14.01,2013-01-04 19:34:00,
2013-01-04 12:39:00,40.5,15.0,25.40,ESE,108,2.2,3.6,35,0.00,,---,0.00,VWS V14.01,2013-01-04 19:39:00,
2013-01-04 12:44:00,40.3,14.8,25.40,NNW,340,2.2,3.6,35,0.00,,---,0.00,VWS V14.01,2013-01-04 19:44:00,
2013-01-04 12:49:00,40.3,14.8,25.40,NW,317,3.6,4.9,35,0.00,,---,0.00,VWS V14.01,2013-01-04 19:49:00,
2013-01-04 12:54:00,40.5,13.6,25.40,NNW,331,0.0,0.0,33,0.00,,---,0.00,VWS V14.01,2013-01-04 19:54:00,
2013-01-04 12:59:00,40.3,13.5,25.37,NNW,331,0.0,0.0,33,0.00,,---,0.00,VWS V14.01,2013-01-04 19:59:00,
2013-01-04 13:04:00,40.8,14.6,25.37,ENE,57,2.7,2.7,34,0.00,,---,0.00,VWS V14.01,2013-01-04 20:04:00,
2013-01-04 13:09:00,41.4,13.7,25.37,North,0,3.1,3.1,32,0.00,,---,0.00,VWS V14.01,2013-01-04 20:09:00,
2013-01-04 13:14:00,41.2,12.9,25.37,NNE,31,0.0,3.1,31,0.00,,---,0.00,VWS V14.01,2013-01-04 20:14:00,
2013-01-04 13:19:00,41.5,13.2,25.37,North,0,0.0,3.6,31,0.00,,---,0.00,VWS V14.01,2013-01-04 20:19:00,
2013-01-04 13:24:00,41.7,14.1,25.37,North,353,3.1,4.9,32,0.00,,---,0.00,VWS V14.01,2013-01-04 20:24:00,
2013-01-04 13:29:00,41.7,14.1,25.37,NW,314,2.2,2.2,32,0.00,,---,0.00,VWS V14.01,2013-01-04 20:29:00,
2013-01-04 13:34:00,41.7,14.1,25.37,NW,316,3.1,4.0,32,0.00,,---,0.00,VWS V14.01,2013-01-04 20:34:00,
2013-01-04 13:39:00,41.7,13.3,25.37,NNW,334,2.7,2.7,31,0.00,,---,0.00,VWS V14.01,2013-01-04 20:39:00,
2013-01-04 13:44:00,42.3,13.8,25.37,North,357,2.7,3.6,31,0.00,,---,0.00,VWS V14.01,2013-01-04 20:44:00,
2013-01-04 13:49:00,42.1,14.4,25.37,East,84,0.0,0.0,32,0.00,,---,0.00,VWS V14.01,2013-01-04 20:49:00,
2013-01-04 13:54:00,42.3,13.1,25.37,North,353,0.0,0.0,30,0.00,,---,0.00,VWS V14.01,2013-01-04 20:54:00,
2013-01-04 13:59:00,42.6,14.8,25.37,ESE,112,2.2,3.6,32,0.00,,---,0.00,VWS V14.01,2013-01-04 20:59:00,
2013-01-04 14:04:00,42.6,14.1,25.37,NW,317,3.1,3.6,31,0.00,,---,0.00,VWS V14.01,2013-01-04 21:04:00,
2013-01-04 14:09:00,42.6,12.6,25.37,NW,313,0.0,0.0,29,0.00,,---,0.00,VWS V14.01,2013-01-04 21:09:00,
2013-01-04 14:14:00,43.0,13.7,25.37,West,278,3.1,4.0,30,0.00,,---,0.00,VWS V14.01,2013-01-04 21:14:00,
2013-01-04 14:19:00,43.3,13.2,25.37,NNW,337,4.0,4.0,29,0.00,,---,0.00,VWS V14.01,2013-01-04 21:19:00,
2013-01-04 14:24:00,43.2,13.8,25.37,NNW,340,0.0,0.0,30,0.00,,---,0.00,VWS V14.01,2013-01-04 21:24:00,
2013-01-04 14:29:00,43.3,14.0,25.37,North,353,0.0,0.0,30,0.00,,---,0.00,VWS V14.01,2013-01-04 21:29:00,
2013-01-04 14:34:00,43.5,14.2,25.37,NNE,23,0.0,0.0,30,0.00,,---,0.00,VWS V14.01,2013-01-04 21:34:00,
2013-01-04 14:39:00,43.7,13.5,25.37,NE,35,2.7,2.7,29,0.00,,---,0.00,VWS V14.01,2013-01-04 21:39:00,
2013-01-04 14:44:00,44.1,14.6,25.34,NE,41,3.1,4.0,30,0.00,,---,0.00,VWS V14.01,2013-01-04 21:44:00,
2013-01-04 14:49:00,44.1,14.6,25.34,North,8,3.1,3.1,30,0.00,,---,0.00,VWS V14.01,2013-01-04 21:49:00,
2013-01-04 14:54:00,44.2,14.0,25.34,WNW,288,3.1,4.0,29,0.00,,---,0.00,VWS V14.01,2013-01-04 21:54:00,
2013-01-04 14:59:00,44.2,14.8,25.34,NE,49,2.2,4.0,30,0.00,,---,0.00,VWS V14.01,2013-01-04 21:59:00,
2013-01-04 15:04:00,44.2,14.0,25.34,NW,324,2.7,4.9,29,0.00,,---,0.00,VWS V14.01,2013-01-04 22:04:00,
2013-01-04 15:09:00,44.2,14.0,25.34,WNW,302,3.6,3.6,29,0.00,,---,0.00,VWS V14.01,2013-01-04 22:09:00,
2013-01-04 15:14:00,44.2,14.0,25.37,East,96,3.1,4.5,29,0.00,,---,0.00,VWS V14.01,2013-01-04 22:14:00,
2013-01-04 15:19:00,44.2,14.0,25.37,ENE,67,3.1,4.0,29,0.00,,---,0.00,VWS V14.01,2013-01-04 22:19:00,
2013-01-04 15:24:00,44.1,14.6,25.37,NNW,328,2.7,3.1,30,0.00,,---,0.00,VWS V14.01,2013-01-04 22:24:00,
2013-01-04 15:29:00,44.1,13.9,25.37,NW,313,0.0,0.0,29,0.00,,---,0.00,VWS V14.01,2013-01-04 22:29:00,
2013-01-04 15:34:00,44.2,14.0,25.37,North,5,2.2,3.6,29,0.00,,---,0.00,VWS V14.01,2013-01-04 22:34:00,
2013-01-04 15:39:00,44.2,14.8,25.37,NNW,346,2.7,3.1,30,0.00,,---,0.00,VWS V14.01,2013-01-04 22:39:00,
2013-01-04 15:44:00,44.2,14.0,25.37,NNW,348,0.0,3.1,29,0.00,,---,0.00,VWS V14.01,2013-01-04 22:44:00,
2013-01-04 15:49:00,44.1,13.9,25.37,NNE,16,2.7,2.7,29,0.00,,---,0.00,VWS V14.01,2013-01-04 22:49:00,
2013-01-04 15:54:00,44.2,14.0,25.37,NW,312,0.0,3.6,29,0.00,,---,0.00,VWS V14.01,2013-01-04 22:54:00,
2013-01-04 15:59:00,44.2,14.0,25.37,NE,37,0.0,3.6,29,0.00,,---,0.00,VWS V14.01,2013-01-04 22:59:00,
2013-01-04 16:04:00,44.2,14.0,25.37,NE,40,2.2,3.1,29,0.00,,---,0.00,VWS V14.01,2013-01-04 23:04:00,
2013-01-04 16:09:00,44.1,13.9,25.37,East,98,3.6,4.0,29,0.00,,---,0.00,VWS V14.01,2013-01-04 23:09:00,
2013-01-04 16:14:00,44.1,13.9,25.37,NNW,343,2.2,3.1,29,0.00,,---,0.00,VWS V14.01,2013-01-04 23:14:00,
2013-01-04 16:20:00,43.9,13.7,25.37,ENE,70,2.7,3.6,29,0.00,,---,0.00,VWS V14.01,2013-01-04 23:20:00,
2013-01-04 16:25:00,43.7,13.5,25.37,ENE,63,3.1,3.1,29,0.00,,---,0.00,VWS V14.01,2013-01-04 23:25:00,
2013-01-04 16:30:00,43.5,13.4,25.37,NE,55,2.2,3.1,29,0.00,,---,0.00,VWS V14.01,2013-01-04 23:30:00,
2013-01-04 16:35:00,43.5,13.4,25.37,ESE,102,0.0,2.7,29,0.00,,---,0.00,VWS V14.01,2013-01-04 23:35:00,
2013-01-04 16:40:00,43.3,13.2,25.37,ESE,104,3.6,3.6,29,0.00,,---,0.00,VWS V14.01,2013-01-04 23:40:00,
2013-01-04 16:45:00,43.2,13.1,25.37,East,87,5.8,5.8,29,0.00,,---,0.00,VWS V14.01,2013-01-04 23:45:00,
2013-01-04 16:50:00,43.3,13.2,25.37,South,189,0.0,3.1,29,0.00,,---,0.00,VWS V14.01,2013-01-04 23:50:00,
2013-01-04 16:55:00,42.8,12.8,25.37,South,189,0.0,0.0,29,0.00,,---,0.00,VWS V14.01,2013-01-04 23:55:00,
2013-01-04 17:00:00,42.6,13.4,25.37,ESE,113,0.0,2.7,30,0.00,,---,0.00,VWS V14.01,2013-01-05 00:00:00,
2013-01-04 17:05:00,42.6,13.4,25.37,East,98,2.7,4.0,30,0.00,,---,0.00,VWS V14.01,2013-01-05 00:05:00,
2013-01-04 17:10:00,42.4,13.2,25.37,East,92,0.0,2.7,30,0.00,,---,0.00,VWS V14.01,2013-01-05 00:10:00,
2013-01-04 17:15:00,41.7,12.6,25.37,East,91,3.6,3.6,30,0.00,,---,0.00,VWS V14.01,2013-01-05 00:15:00,
2013-01-04 17:20:00,41.5,13.2,25.37,ESE,113,0.0,3.6,31,0.00,,---,0.00,VWS V14.01,2013-01-05 00:20:00,
2013-01-04 17:25:00,41.4,13.0,25.37,ESE,119,2.7,3.1,31,0.00,,---,0.00,VWS V14.01,2013-01-05 00:25:00,
2013-01-04 17:30:00,40.6,13.1,25.37,SE,128,0.0,2.7,32,0.00,,---,0.00,VWS V14.01,2013-01-05 00:30:00,
2013-01-04 17:35:00,40.1,12.6,25.37,SE,138,0.0,2.7,32,0.00,,---,0.00,VWS V14.01,2013-01-05 00:35:00,
2013-01-04 17:40:00,39.6,12.9,25.37,SSE,164,2.7,2.7,33,0.00,,---,0.00,VWS V14.01,2013-01-05 00:40:00,
2013-01-04 17:45:00,39.2,12.5,25.37,South,170,2.2,3.1,33,0.00,,---,0.00,VWS V14.01,2013-01-05 00:45:00,
2013-01-04 17:50:00,38.8,13.5,25.37,South,170,0.0,0.0,35,0.00,,---,0.00,VWS V14.01,2013-01-05 00:50:00,
2013-01-04 17:55:00,38.5,12.6,25.37,SSE,168,2.7,3.1,34,0.00,,---,0.00,VWS V14.01,2013-01-05 00:55:00,
2013-01-04 18:00:00,37.9,12.7,25.37,SSE,168,0.0,0.0,35,0.00,,---,0.00,VWS V14.01,2013-01-05 01:00:00,
2013-01-04 18:05:00,37.4,12.3,25.37,SSE,168,4.0,4.0,35,0.00,,---,0.00,VWS V14.01,2013-01-05 01:05:00,
2013-01-04 18:10:00,37.0,13.8,25.37,SSE,168,2.7,2.7,38,0.00,,---,0.00,VWS V14.01,2013-01-05 01:10:00,
2013-01-04 18:15:00,36.7,13.5,25.40,SSE,168,2.7,2.7,38,0.00,,---,0.00,VWS V14.01,2013-01-05 01:15:00,
2013-01-04 18:20:00,36.3,13.2,25.40,SSE,168,3.1,3.1,38,0.00,,---,0.00,VWS V14.01,2013-01-05 01:20:00,
2013-01-04 18:25:00,36.0,13.4,25.40,SSE,164,2.7,2.7,39,0.00,,---,0.00,VWS V14.01,2013-01-05 01:25:00,
2013-01-04 18:30:00,35.8,13.8,25.40,SSE,162,3.1,3.1,40,0.00,,---,0.00,VWS V14.01,2013-01-05 01:30:00,
2013-01-04 18:35:00,35.4,13.5,25.40,SSE,162,2.2,2.7,40,0.00,,---,0.00,VWS V14.01,2013-01-05 01:35:00,
2013-01-04 18:40:00,35.2,14.5,25.40,SSE,157,3.1,3.6,42,0.00,,---,0.00,VWS V14.01,2013-01-05 01:40:00,
2013-01-04 18:45:00,35.1,13.2,25.40,SSE,154,0.0,0.0,40,0.00,,---,0.00,VWS V14.01,2013-01-05 01:45:00,
2013-01-04 18:50:00,34.7,13.4,25.40,SSE,154,3.1,3.1,41,0.00,,---,0.00,VWS V14.01,2013-01-05 01:50:00,
2013-01-04 18:55:00,34.5,13.8,25.40,SSE,154,0.0,0.0,42,0.00,,---,0.00,VWS V14.01,2013-01-05 01:55:00,
2013-01-04 19:00:00,34.5,13.3,25.40,SSE,154,0.0,0.0,41,0.00,,---,0.00,VWS V14.01,2013-01-05 02:00:00,
2013-01-04 19:05:00,34.7,14.0,25.40,SSE,153,2.7,2.7,42,0.00,,---,0.00,VWS V14.01,2013-01-05 02:05:00,
2013-01-04 19:10:00,34.5,15.4,25.40,SE,130,0.0,0.0,45,0.00,,---,0.00,VWS V14.01,2013-01-05 02:10:00,
2013-01-04 19:15:00,34.5,16.4,25.40,SE,141,0.0,0.0,47,0.00,,---,0.00,VWS V14.01,2013-01-05 02:15:00,
2013-01-04 19:20:00,34.7,15.0,25.40,SE,141,0.0,0.0,44,0.00,,---,0.00,VWS V14.01,2013-01-05 02:20:00,
2013-01-04 19:25:00,34.9,16.2,25.40,SE,141,0.0,0.0,46,0.00,,---,0.00,VWS V14.01,2013-01-05 02:25:00,
2013-01-04 19:30:00,34.7,15.0,25.40,SE,141,0.0,0.0,44,0.00,,---,0.00,VWS V14.01,2013-01-05 02:30:00,
2013-01-04 19:35:00,34.7,16.0,25.40,ESE,117,0.0,0.0,46,0.00,,---,0.00,VWS V14.01,2013-01-05 02:35:00,
2013-01-04 19:40:00,34.3,15.7,25.40,ESE,120,0.0,0.0,46,0.00,,---,0.00,VWS V14.01,2013-01-05 02:40:00,
2013-01-04 19:45:00,34.3,16.7,25.40,ESE,115,0.0,3.1,48,0.00,,---,0.00,VWS V14.01,2013-01-05 02:45:00,
2013-01-04 19:50:00,34.2,16.0,25.40,ESE,116,0.0,0.0,47,0.00,,---,0.00,VWS V14.01,2013-01-05 02:50:00,
2013-01-04 19:55:00,34.0,15.9,25.40,ESE,103,0.0,0.0,47,0.00,,---,0.00,VWS V14.01,2013-01-05 02:55:00,
2013-01-04 20:00:00,33.8,15.7,25.40,ESE,104,0.0,0.0,47,0.00,,---,0.00,VWS V14.01,2013-01-05 03:00:00,
2013-01-04 20:05:00,33.8,15.7,25.40,ESE,104,0.0,0.0,47,0.00,,---,0.00,VWS V14.01,2013-01-05 03:05:00,
2013-01-04 20:10:00,33.6,17.0,25.40,ESE,104,0.0,0.0,50,0.00,,---,0.00,VWS V14.01,2013-01-05 03:10:00,
2013-01-04 20:15:00,33.1,16.0,25.40,ESE,104,0.0,0.0,49,0.00,,---,0.00,VWS V14.01,2013-01-05 03:15:00,
2013-01-04 20:20:00,33.3,17.1,25.40,ESE,106,0.0,0.0,51,0.00,,---,0.00,VWS V14.01,2013-01-05 03:20:00,
2013-01-04 20:25:00,33.1,17.4,25.40,ESE,106,0.0,0.0,52,0.00,,---,0.00,VWS V14.01,2013-01-05 03:25:00,
2013-01-04 20:30:00,33.1,16.9,25.40,ESE,106,0.0,0.0,51,0.00,,---,0.00,VWS V14.01,2013-01-05 03:30:00,
2013-01-04 20:35:00,32.7,16.6,25.40,ESE,106,0.0,0.0,51,0.00,,---,0.00,VWS V14.01,2013-01-05 03:35:00,
2013-01-04 20:40:00,32.7,17.0,25.40,ESE,106,0.0,0.0,52,0.00,,---,0.00,VWS V14.01,2013-01-05 03:40:00,
2013-01-04 20:45:00,32.7,17.0,25.40,ESE,106,0.0,2.7,52,0.00,,---,0.00,VWS V14.01,2013-01-05 03:45:00,
2013-01-04 20:50:00,32.7,16.1,25.40,ESE,106,0.0,0.0,50,0.00,,---,0.00,VWS V14.01,2013-01-05 03:50:00,
2013-01-04 20:55:00,32.5,15.0,25.40,ESE,106,0.0,0.0,48,0.00,,---,0.00,VWS V14.01,2013-01-05 03:55:00,
2013-01-04 21:00:00,32.5,16.0,25.40,ESE,107,0.0,0.0,50,0.00,,---,0.00,VWS V14.01,2013-01-05 04:00:00,
2013-01-04 21:05:00,32.2,16.5,25.40,ESE,107,0.0,0.0,52,0.00,,---,0.00,VWS V14.01,2013-01-05 04:05:00,
2013-01-04 21:10:00,32.2,16.5,25.40,ESE,107,0.0,0.0,52,0.00,,---,0.00,VWS V14.01,2013-01-05 04:10:00,
2013-01-04 21:15:00,32.0,16.4,25.40,ESE,107,0.0,0.0,52,0.00,,---,0.00,VWS V14.01,2013-01-05 04:15:00,
2013-01-04 21:20:00,31.8,16.2,25.40,ESE,107,0.0,0.0,52,0.00,,---,0.00,VWS V14.01,2013-01-05 04:20:00,
2013-01-04 21:25:00,32.0,16.4,25.40,ESE,119,0.0,0.0,52,0.00,,---,0.00,VWS V14.01,2013-01-05 04:25:00,
2013-01-04 21:31:00,32.0,16.8,25.43,SE,127,2.2,2.2,53,0.00,,---,0.00,VWS V14.01,2013-01-05 04:31:00,
2013-01-04 21:36:00,31.8,17.1,25.43,ESE,118,2.2,3.1,54,0.00,,---,0.00,VWS V14.01,2013-01-05 04:36:00,
2013-01-04 21:41:00,31.6,16.5,25.43,East,90,0.0,0.0,53,0.00,,---,0.00,VWS V14.01,2013-01-05 04:41:00,
2013-01-04 21:46:00,31.6,17.3,25.43,East,90,0.0,2.2,55,0.00,,---,0.00,VWS V14.01,2013-01-05 04:46:00,
2013-01-04 21:51:00,31.6,16.9,25.43,East,90,0.0,0.0,54,0.00,,---,0.00,VWS V14.01,2013-01-05 04:51:00,
2013-01-04 21:56:00,31.3,16.6,25.43,East,90,0.0,0.0,54,0.00,,---,0.00,VWS V14.01,2013-01-05 04:56:00,
2013-01-04 22:00:00,31.5,17.2,25.43,East,90,0.0,2.2,55,0.00,,---,0.00,VWS V14.01,2013-01-05 05:00:00,
2013-01-04 22:03:00,31.5,17.2,25.43,East,90,0.0,0.0,55,0.00,,---,0.00,VWS V14.01,2013-01-05 05:03:00,
2013-01-04 22:08:00,31.3,17.4,25.43,East,90,0.0,0.0,56,0.00,,---,0.00,VWS V14.01,2013-01-05 05:08:00,
2013-01-04 22:13:00,31.3,17.0,25.43,East,90,0.0,0.0,55,0.00,,---,0.00,VWS V14.01,2013-01-05 05:13:00,
2013-01-04 22:18:00,31.1,16.4,25.43,East,90,0.0,0.0,54,0.00,,---,0.00,VWS V14.01,2013-01-05 05:18:00,
2013-01-04 22:23:00,30.6,15.9,25.43,East,90,0.0,0.0,54,0.00,,---,0.00,VWS V14.01,2013-01-05 05:23:00,
2013-01-04 22:28:00,30.2,16.0,25.43,East,90,0.0,0.0,55,0.00,,---,0.00,VWS V14.01,2013-01-05 05:28:00,
2013-01-04 22:33:00,29.8,14.8,25.43,East,90,0.0,0.0,53,0.00,,---,0.00,VWS V14.01,2013-01-05 05:33:00,
2013-01-04 22:38:00,29.7,14.6,25.43,East,90,0.0,0.0,53,0.00,,---,0.00,VWS V14.01,2013-01-05 05:38:00,
2013-01-04 22:43:00,30.0,15.4,25.43,East,90,0.0,0.0,54,0.00,,---,0.00,VWS V14.01,2013-01-05 05:43:00,
2013-01-04 22:48:00,30.2,15.6,25.43,East,90,0.0,0.0,54,0.00,,---,0.00,VWS V14.01,2013-01-05 05:48:00,
2013-01-04 22:53:00,30.4,15.7,25.43,East,91,0.0,2.2,54,0.00,,---,0.00,VWS V14.01,2013-01-05 05:53:00,
2013-01-04 22:58:00,30.2,15.6,25.43,East,100,0.0,0.0,54,0.00,,---,0.00,VWS V14.01,2013-01-05 05:58:00,
2013-01-04 23:03:00,30.2,16.0,25.43,East,100,0.0,0.0,55,0.00,,---,0.00,VWS V14.01,2013-01-05 06:03:00,
2013-01-04 23:08:00,30.0,15.4,25.43,ESE,103,0.0,0.0,54,0.00,,---,0.00,VWS V14.01,2013-01-05 06:08:00,
2013-01-04 23:13:00,29.8,14.8,25.43,ESE,103,0.0,0.0,53,0.00,,---,0.00,VWS V14.01,2013-01-05 06:13:00,
2013-01-04 23:18:00,29.5,13.6,25.43,ESE,103,0.0,0.0,51,0.00,,---,0.00,VWS V14.01,2013-01-05 06:18:00,
2013-01-04 23:23:00,29.8,14.4,25.43,ESE,103,0.0,0.0,52,0.00,,---,0.00,VWS V14.01,2013-01-05 06:23:00,
2013-01-04 23:28:00,29.7,14.6,25.43,ESE,103,0.0,0.0,53,0.00,,---,0.00,VWS V14.01,2013-01-05 06:28:00,
2013-01-04 23:33:00,29.5,14.0,25.43,ESE,103,0.0,0.0,52,0.00,,---,0.00,VWS V14.01,2013-01-05 06:33:00,
2013-01-04 23:38:00,29.5,14.5,25.43,ESE,103,0.0,0.0,53,0.00,,---,0.00,VWS V14.01,2013-01-05 06:38:00,
2013-01-04 23:43:00,29.8,15.2,25.43,ESE,103,0.0,0.0,54,0.00,,---,0.00,VWS V14.01,2013-01-05 06:43:00,
2013-01-04 23:48:00,29.8,15.2,25.43,ESE,103,0.0,0.0,54,0.00,,---,0.00,VWS V14.01,2013-01-05 06:48:00,
2013-01-04 23:53:00,29.7,14.6,25.43,ESE,103,0.0,0.0,53,0.00,,---,0.00,VWS V14.01,2013-01-05 06:53:00,
2013-01-04 23:58:00,30.0,15.0,25.43,ESE,103,0.0,0.0,53,0.00,,---,0.00,VWS V14.01,2013-01-05 06:58:00,